Orbital Elements at Epoch 2459000.5 (2020-May-31.0) TDB
Reference: JPL 25 (heliocentric ecliptic J2000)
Element | Value | Uncertainty (1-sigma) | Units |
e | .1860637081349952 | 4.2175e-08 | |
a | 2.234201388234016 | 8.9184e-09 | au |
q | 1.818497593218841 | 9.7183e-08 | au |
i | 5.499547277107951 | 5.2812e-06 | deg |
node | 5.668395533819856 | 4.8931e-05 | deg |
peri | 293.2697447866136 | 5.1492e-05 | deg |
M | 168.5698257937003 | 1.6265e-05 | deg |
tp | 2458429.338086239527 (2018-Nov-06.83808624) | 5.3514e-05 | TDB |
period | 1219.78110842572 3.34 | 7.3036e-06 2e-08 | d yr |
n | .2951349201207297 | 1.7672e-09 | deg/d |
Q | 2.649905183249191 | 1.0578e-08 | au |
|
| | Orbit Determination Parameters
Additional Information
|